Wind_Speed
5 5 6 7 8 7 7 7 3 11 16 17 18 18 17 17 18 19 19 18 18 17 16 18 18 17 19 21 21 19 19 18 15 13 12 10 9 7 7 7 7 6 6
4 4 5 3 4 5 6 5 4 2 7 12 14 16 17 16 17 18 18 18 17 16 16 16 15 15 14 16 16 18 19 18 17 15 13 13 11 8 7 7 7 7 7
5 5 5 5 4 2 2 3 4 2 1 2 7 11 13 14 15 15 17 14 15 13 14 12 12 11 11 11 11 10 12 15 17 14 15 14 12 10 11 11 10 10 10
9 7 5 6 6 5 4 3 2 1 1 1 3 4 6 10 13 13 13 12 11 14 13 11 11 11 11 11 10 9 8 9 11 13 16 14 14 14 14 13 13 13 13
9 9 8 7 6 7 8 7 5 5 5 4 3 4 5 6 8 11 13 12 10 11 11 12 11 11 13 13 12 13 13 11 12 15 15 14 16 16 17 17 16 16 15
7 8 8 8 7 6 6 9 10 8 8 8 8 7 7 6 7 8 10 13 12 12 13 14 14 15 15 15 15 14 15 13 14 16 17 17 18 17 19 19 19 19 19
9 7 8 8 8 7 7 7 8 11 12 11 10 10 10 9 9 9 10 11 13 15 15 15 16 16 15 15 15 14 13 12 13 14 15 16 17 17 17 17 18 18 19
11 12 10 10 9 9 8 7 8 8 9 12 14 14 13 13 12 12 12 13 13 14 15 16 17 17 16 17 15 16 14 14 15 15 15 17 17 16 17 18 18 18 19
14 14 14 13 13 13 12 11 10 10 10 10 10 14 16 17 17 16 16 15 15 16 16 17 17 17 18 18 18 18 16 15 17 17 18 19 19 18 19 20 20 20 20
15 16 17 17 17 16 16 16 15 15 14 12 13 12 14 17 20 21 19 19 19 19 19 19 19 19 20 19 19 19 18 18 20 20 21 22 22 21 21 22 22 22 22
14 15 18 19 19 19 20 20 20 19 18 18 18 15 15 16 16 18 21 23 23 23 23 23 23 23 23 23 24 24 23 23 22 21 23 22 21 20 20 21 23 24 23
14 15 17 19 20 19 20 23 24 24 23 23 23 22 21 19 19 20 21 21 22 24 25 26 27 27 28 28 28 27 27 26 24 25 25 25 25 23 22 22 22 22 22
18 19 18 18 19 20 20 21 23 25 26 26 26 26 26 26 26 25 25 25 24 24 25 26 26 27 29 30 31 32 31 30 30 29 28 29 30 28 27 27 25 25 25
24 23 22 21 20 21 21 21 22 22 24 26 27 26 26 27 30 31 31 30 29 29 28 29 28 29 29 29 30 30 31 32 34 34 33 32 32 31 31 31 30 29 29
24 25 24 24 23 24 23 23 24 24 25 26 28 28 28 28 29 32 35 35 35 35 35 34 33 32 32 31 32 32 32 33 33 33 34 36 36 34 33 33 33 33 33
26 28 26 25 25 26 27 28 28 28 29 29 30 31 31 30 29 31 33 35 37 38 39 39 39 38 37 36 35 34 34 33 34 35 35 35 35 35 36 36 36 36 35
29 28 27 30 28 28 30 32 31 32 33 33 34 34 35 34 35 35 34 34 36 36 38 40 42 42 41 41 40 39 38 37 37 37 36 36 36 37 37 37 36 37 36
29 31 31 27 29 32 31 30 32 33 33 35 36 37 38 38 39 39 39 39 40 38 38 39 42 42 43 43 43 43 42 41 41 40 40 40 38 38 38 39 40 40 38
29 29 29 30 29 28 30 32 32 34 36 38 38 38 39 41 41 41 43 44 45 44 43 43 44 45 46 46 44 44 43 43 44 44 44 43 43 42 41 41 40 40 39
34 33 32 31 32 33 32 33 35 37 38 37 39 40 40 41 43 44 45 46 48 47 46 47 48 49 48 48 47 45 44 44 45 45 46 46 46 46 45 44 42 41 41
39 38 40 39 37 37 37 35 36 37 36 37 38 39 39 40 40 40 42 44 45 46 47 48 48 49 50 52 51 47 46 46 46 46 45 46 47 48 48 46 45 43 43
40 39 38 37 38 37 38 41 41 41 43 44 44 45 46 46 46 46 45 45 48 49 49 49 48 49 51 52 53 52 51 48 46 46 47 46 46 47 47 48 47 47 46
42 44 45 45 43 42 40 40 42 45 45 47 48 49 49 50 51 50 48 47 48 49 49 49 48 48 49 51 52 52 52 50 48 47 47 48 48 47 47 47 47 49 49
38 40 44 46 49 47 47 47 45 44 44 45 48 50 51 51 54 54 53 52 51 50 49 49 50 51 51 50 51 51 54 53 53 53 52 51 51 50 51 51 51 51 50
41 41 42 42 44 48 50 52 53 50 53 52 52 54 56 55 54 57 59 59 60 59 58 57 55 53 55 55 55 55 56 58 57 57 54 56 56 55 56 55 55 54 52
50 47 45 45 46 48 50 52 55 56 58 59 61 61 60 62 61 62 63 65 67 68 66 66 64 63 62 62 62 61 60 61 62 62 60 57 58 58 59 59 58 57 56
Wind_Direction
13 21 57 67 63 66 46 22 315 237 236 236 237 240 248 249 249 246 251 263 260 250 241 241 242 242 250 255 258 257 257 258 262 269 264 269 269 258 260 259 257 258 259
333 343 354 28 68 67 64 69 63 9 249 243 245 244 244 251 252 248 258 266 267 250 242 244 248 249 255 257 261 260 256 256 259 261 261 262 260 261 258 255 255 254 253
359 327 312 325 339 3 29 34 50 87 135 246 261 261 260 258 257 256 256 264 258 255 246 241 241 244 247 249 254 260 264 250 252 262 262 258 257 261 260 256 255 254 248
13 14 342 301 299 312 313 308 320 315 338 273 252 257 261 258 259 262 262 268 264 259 254 248 241 241 241 243 250 257 257 253 259 257 260 266 268 260 258 256 252 256 256
5 7 10 5 326 299 295 298 292 288 284 266 271 265 254 254 254 256 258 262 259 260 261 255 251 245 247 252 254 258 254 246 251 258 262 263 262 261 261 260 254 253 253
347 349 347 355 358 345 310 290 286 283 279 278 277 266 267 267 259 255 250 252 253 254 255 258 256 256 254 259 260 261 262 259 253 257 262 255 256 256 256 254 254 256 252
311 318 322 329 331 332 330 321 299 282 277 275 273 273 270 266 262 258 258 253 249 250 252 257 257 255 255 255 259 261 262 264 260 259 261 264 259 257 258 257 256 254 256
292 291 295 297 304 310 314 306 303 298 287 275 271 270 270 269 264 264 261 256 251 250 248 249 250 251 248 251 255 251 250 251 254 255 256 258 260 259 259 258 256 257 255
289 283 279 278 278 280 283 286 287 285 282 280 273 267 263 263 264 262 259 259 258 257 256 255 254 255 255 250 246 248 253 255 256 257 257 256 256 255 256 257 256 254 254
295 289 283 278 274 270 271 273 273 276 277 278 274 268 267 263 260 261 262 262 259 257 257 257 257 255 255 254 255 256 255 261 263 263 266 264 263 261 259 261 261 260 259
296 296 290 286 282 277 273 271 270 268 268 268 267 267 266 263 262 263 261 258 258 260 259 260 259 259 258 257 256 257 259 262 264 264 261 257 259 260 261 263 265 264 262
282 282 286 289 287 283 278 273 269 264 262 261 261 261 261 262 263 258 256 257 258 259 261 261 262 263 262 260 259 260 260 259 263 262 260 257 258 260 263 264 263 264 264
285 286 281 282 286 284 281 278 275 271 265 262 260 260 260 259 259 259 258 254 252 254 256 256 257 258 260 262 262 263 264 264 262 260 259 257 261 263 264 264 265 263 262
284 283 283 284 279 276 277 278 276 272 268 264 259 258 258 257 255 254 256 256 255 253 253 254 255 255 257 258 259 261 262 262 262 261 260 257 258 260 262 264 264 263 260
286 280 276 273 271 269 267 266 269 269 268 266 262 261 261 262 263 262 257 255 257 257 256 254 254 254 255 257 258 259 259 261 261 261 260 259 257 257 259 262 262 260 258
284 283 278 269 266 265 265 262 260 263 263 265 264 262 261 261 263 265 265 260 256 256 258 258 257 257 257 256 256 257 257 259 261 262 261 261 260 260 259 259 259 260 259
279 277 275 275 264 259 262 265 266 266 267 267 266 264 262 261 260 260 262 264 263 260 260 259 259 258 258 257 257 257 257 257 256 258 259 260 261 261 260 259 257 256 256
280 278 280 274 271 267 261 258 259 262 265 267 268 267 265 261 258 257 257 259 261 262 264 266 267 267 264 261 260 258 257 256 256 256 257 258 259 259 258 258 258 257 256
283 279 276 277 274 269 270 266 261 260 260 261 262 265 265 264 262 259 258 257 257 257 258 259 262 266 268 268 266 264 262 260 257 255 254 255 256 257 257 257 257 258 259
286 282 280 275 271 270 267 264 263 265 265 264 263 261 259 262 264 265 261 261 261 259 257 257 256 258 261 265 268 269 267 265 263 259 256 255 255 254 254 256 257 258 260
283 283 284 282 277 273 270 265 263 264 261 262 262 263 263 263 259 260 264 262 261 263 262 258 256 257 259 261 263 266 266 265 265 264 263 258 255 255 256 257 258 258 260
284 282 277 275 275 276 273 271 266 261 263 264 263 263 264 266 263 261 260 260 262 262 259 259 259 260 259 259 261 262 263 263 266 266 264 263 259 257 256 256 257 258 258
274 277 280 280 276 273 270 268 267 264 261 261 263 264 265 266 265 266 264 260 258 257 256 257 257 258 261 262 262 261 260 261 260 262 264 264 263 262 260 260 258 257 257
277 276 277 277 278 280 280 275 270 265 260 263 265 266 264 263 264 263 260 259 257 254 254 257 259 261 261 263 265 267 265 260 259 259 261 262 261 261 260 259 258 258 258
290 285 284 282 277 276 276 276 276 271 264 265 267 264 263 264 263 261 260 258 256 255 255 258 257 259 263 262 262 263 263 265 265 263 260 262 260 259 258 258 258 259 259
287 285 279 276 273 272 271 267 268 271 267 264 271 271 268 265 262 262 261 259 256 256 258 258 261 262 262 262 263 265 264 262 262 263 262 260 259 260 260 258 258 258 257
Height
5865 5865 5865 5865 5865 5865 5865 5865 5865 5866 5868 5868 5869 5870 5871 5871 5871 5872 5872 5873 5873 5874 5876 5877 5880 5881 5881 5882 5883 5884 5884 5885 5886 5886 5886 5887 5887 5887 5887 5888 5888 5889 5889
5865 5865 5865 5865 5865 5866 5866 5866 5866 5866 5867 5868 5869 5869 5869 5869 5870 5870 5871 5871 5872 5873 5874 5876 5877 5878 5879 5880 5881 5881 5882 5884 5884 5885 5886 5886 5886 5886 5887 5886 5887 5887 5888
5865 5865 5865 5865 5865 5865 5865 5866 5866 5866 5866 5867 5867 5868 5868 5869 5869 5869 5870 5870 5870 5871 5872 5873 5875 5875 5877 5878 5879 5879 5880 5880 5881 5883 5884 5884 5884 5885 5885 5885 5885 5885 5885
5866 5865 5865 5865 5865 5865 5865 5865 5865 5865 5866 5866 5867 5867 5867 5868 5869 5869 5869 5870 5869 5870 5871 5872 5873 5873 5875 5876 5876 5877 5878 5878 5880 5880 5880 5882 5883 5883 5883 5883 5884 5884 5884
5867 5866 5865 5865 5864 5864 5864 5864 5864 5865 5865 5865 5865 5866 5866 5866 5867 5867 5868 5868 5869 5869 5870 5871 5870 5872 5873 5874 5874 5875 5875 5876 5877 5876 5878 5879 5880 5880 5880 5881 5882 5882 5882
5867 5866 5865 5864 5863 5862 5862 5862 5863 5863 5863 5864 5864 5865 5865 5865 5865 5865 5866 5866 5867 5867 5868 5869 5869 5869 5870 5871 5871 5872 5873 5873 5874 5874 5874 5876 5877 5877 5877 5877 5878 5879 5880
5866 5865 5864 5864 5863 5862 5861 5861 5861 5861 5862 5862 5862 5863 5863 5863 5864 5864 5864 5864 5865 5865 5865 5866 5866 5867 5867 5868 5868 5868 5870 5871 5871 5871 5872 5872 5874 5874 5874 5874 5875 5875 5877
5864 5863 5863 5862 5862 5862 5862 5861 5860 5860 5860 5860 5860 5860 5861 5861 5862 5862 5863 5863 5863 5863 5863 5863 5864 5864 5864 5865 5865 5866 5867 5868 5868 5868 5870 5869 5870 5870 5871 5872 5873 5872 5873
5861 5861 5860 5860 5860 5860 5860 5860 5859 5859 5858 5858 5858 5857 5858 5858 5858 5859 5859 5860 5860 5860 5860 5860 5861 5861 5861 5862 5862 5863 5864 5864 5865 5865 5866 5866 5867 5866 5867 5868 5868 5869 5869
5859 5859 5858 5858 5857 5857 5857 5857 5857 5857 5857 5856 5856 5855 5855 5855 5855 5854 5855 5856 5856 5856 5856 5856 5857 5857 5858 5858 5859 5859 5860 5861 5861 5861 5862 5863 5864 5863 5863 5864 5864 5865 5865
5856 5855 5855 5854 5854 5854 5854 5853 5853 5853 5853 5853 5853 5853 5852 5852 5851 5851 5851 5850 5851 5851 5851 5851 5852 5852 5853 5854 5854 5855 5855 5856 5856 5856 5858 5858 5859 5859 5859 5860 5860 5861 5861
5852 5852 5851 5850 5850 5850 5850 5849 5849 5849 5848 5848 5848 5848 5848 5848 5848 5847 5847 5846 5846 5846 5846 5847 5847 5847 5848 5848 5849 5850 5851 5852 5851 5852 5853 5853 5854 5854 5855 5856 5856 5856 5858
5849 5848 5848 5847 5846 5845 5845 5844 5844 5844 5843 5843 5843 5843 5843 5843 5843 5842 5842 5842 5841 5841 5841 5842 5842 5842 5842 5843 5843 5844 5844 5844 5846 5847 5848 5849 5849 5849 5849 5851 5851 5852 5854
5844 5843 5843 5842 5842 5841 5840 5839 5839 5838 5838 5838 5837 5837 5836 5836 5836 5836 5836 5836 5837 5836 5836 5835 5836 5836 5837 5837 5837 5837 5837 5838 5839 5840 5841 5842 5842 5842 5843 5844 5845 5847 5848
5838 5836 5835 5835 5835 5835 5834 5833 5832 5832 5831 5831 5831 5831 5831 5831 5830 5829 5829 5829 5829 5830 5829 5828 5828 5828 5829 5830 5831 5831 5831 5832 5832 5832 5832 5834 5834 5835 5835 5837 5838 5840 5841
5830 5829 5829 5828 5827 5827 5827 5827 5826 5824 5824 5824 5824 5823 5824 5824 5824 5823 5821 5822 5822 5822 5821 5821 5822 5822 5822 5822 5822 5823 5824 5824 5825 5825 5826 5825 5825 5826 5827 5829 5830 5831 5833
5821 5821 5822 5821 5821 5819 5819 5819 5820 5820 5819 5817 5816 5816 5816 5816 5816 5816 5815 5814 5814 5814 5814 5813 5813 5813 5814 5814 5814 5815 5815 5816 5817 5818 5818 5818 5818 5819 5820 5821 5821 5823 5824
5815 5813 5812 5812 5812 5813 5811 5810 5811 5811 5812 5811 5809 5808 5807 5807 5807 5806 5806 5806 5805 5806 5806 5806 5804 5805 5805 5805 5805 5805 5806 5808 5809 5809 5809 5809 5810 5811 5812 5813 5814 5815 5815
5807 5806 5805 5804 5803 5803 5804 5802 5800 5800 5801 5801 5800 5800 5799 5797 5797 5797 5796 5796 5794 5795 5795 5795 5795 5794 5795 5795 5796 5797 5798 5798 5798 5799 5799 5800 5801 5802 5803 5803 5804 5805 5806
5799 5798 5797 5796 5794 5793 5793 5793 5792 5792 5790 5789 5789 5789 5788 5788 5788 5787 5786 5785 5784 5784 5785 5784 5782 5781 5783 5783 5785 5787 5788 5789 5788 5788 5789 5790 5791 5791 5792 5793 5794 5796 5797
5790 5788 5787 5787 5787 5786 5784 5783 5782 5781 5780 5779 5778 5777 5777 5777 5777 5777 5776 5775 5774 5774 5774 5772 5772 5772 5772 5770 5771 5774 5776 5776 5778 5779 5780 5780 5780 5780 5781 5783 5784 5785 5786
5779 5779 5777 5775 5774 5774 5774 5773 5772 5771 5769 5768 5768 5767 5767 5765 5765 5765 5765 5764 5763 5763 5762 5762 5761 5761 5760 5759 5759 5761 5762 5764 5767 5768 5768 5769 5770 5770 5771 5772 5773 5774 5775
5771 5769 5768 5767 5766 5764 5762 5761 5760 5758 5758 5756 5755 5754 5754 5754 5753 5752 5752 5752 5751 5750 5749 5749 5749 5748 5748 5748 5748 5748 5748 5751 5754 5755 5756 5757 5758 5760 5760 5761 5761 5762 5763
5760 5760 5758 5756 5754 5752 5751 5750 5748 5746 5744 5743 5742 5741 5740 5739 5739 5738 5738 5739 5738 5737 5735 5735 5736 5736 5735 5735 5734 5736 5736 5737 5739 5741 5743 5744 5745 5747 5747 5748 5748 5749 5751
5747 5746 5744 5743 5742 5740 5738 5736 5735 5733 5731 5729 5728 5727 5726 5725 5723 5723 5723 5723 5723 5723 5722 5721 5721 5722 5722 5721 5720 5721 5722 5721 5725 5727 5730 5730 5730 5731 5731 5733 5735 5737 5739
5730 5728 5728 5726 5725 5724 5722 5720 5719 5717 5716 5714 5712 5710 5709 5708 5707 5706 5705 5705 5705 5705 5705 5704 5705 5704 5704 5705 5706 5705 5706 5706 5706 5709 5711 5716 5715 5717 5718 5718 5719 5722 5724